International Virtual Aviation Organisation

Eastern Europe and Northern Asia MCD

 

Карточка аэропорта UHMA

Внимание!
Информация на этой странице в стадии наполнения.
Если вы не увидели какой-то информации, или заметили неточность - пожалуйста сообщите нам!
Спасибо!
Команда RU-STAFF
Название аэропортаУгольный
Название аэропорта (англ.)Ugolny
Превышение194 ft. (59.1 m.)
Координаты64°44.1', 177°44.28'
Высота перехода1600m
Эшелон переходаQFE>=755mm:FL070; QFE<755=>728:FL080; QFE<728:FL090
Коды ответчика6501-6537
Зона ОрВДМагадан РПИ (UHMM)
Данные METARUHMA 121300Z 36004MPS 4500 -SN SCT026 BKN038 BKN046 M15/M18 Q1011 REBLSN RESN R01/////// NOSIG RMK TDZ R01/36004G07MPS END R01/33001G04MPS QFE754/1006
Проноз погоды (TAF)UHMA 121057Z 1212/1312 02009G16MPS 3100 BLSN BKN020 TEMPO 1212/1312 34015G23MPS 0300 SHSN BLSN SCT002 BKN010CB
NOTAMshow/hide NOTAM
AWOS   TABLE

Информация о ВПП


Диспетчерские позиции

Позывной Наименование органа УВД Частота
UHMA_APPАнадырь-Подход124.0
UHMA_TWRАнадырь-Старт124.0



Спутниковое изображение